Grenada Lake Weather Center

Moon Phase Calendar



Grenada Lake Water Level
Online Cameras

 


      

Current Conditions in Grenada
7/19/2024 12:26:59 PM

71°F
Feels Like 73
Clouds
Humidity
93%
Pressure
30.06"
Wind
5.4 mph (NE)
Dew Point
69°F
UV Index
9/10 (Very High)
Visibility
6 mi

Hourly Forecast

Date & Time Fri, Jul 19
12:00 PM
Fri, Jul 19
1:00 PM
Fri, Jul 19
2:00 PM
Fri, Jul 19
3:00 PM
Fri, Jul 19
4:00 PM
Fri, Jul 19
5:00 PM
Fri, Jul 19
6:00 PM
Fri, Jul 19
7:00 PM
Fri, Jul 19
8:00 PM
Fri, Jul 19
9:00 PM
Fri, Jul 19
10:00 PM
Fri, Jul 19
11:00 PM
Sat, Jul 20
12:00 AM
Sat, Jul 20
1:00 AM
Sat, Jul 20
2:00 AM
Sat, Jul 20
3:00 AM
Sat, Jul 20
4:00 AM
Sat, Jul 20
5:00 AM
Sat, Jul 20
6:00 AM
Sat, Jul 20
7:00 AM
Sat, Jul 20
8:00 AM
Sat, Jul 20
9:00 AM
Sat, Jul 20
10:00 AM
Sat, Jul 20
11:00 AM
Sat, Jul 20
12:00 PM
Sat, Jul 20
1:00 PM
Sat, Jul 20
2:00 PM
Sat, Jul 20
3:00 PM
Sat, Jul 20
4:00 PM
Sat, Jul 20
5:00 PM
Sat, Jul 20
6:00 PM
Sat, Jul 20
7:00 PM
Sat, Jul 20
8:00 PM
Sat, Jul 20
9:00 PM
Sat, Jul 20
10:00 PM
Sat, Jul 20
11:00 PM
Sun, Jul 21
12:00 AM
Sun, Jul 21
1:00 AM
Sun, Jul 21
2:00 AM
Sun, Jul 21
3:00 AM
Sun, Jul 21
4:00 AM
Sun, Jul 21
5:00 AM
Sun, Jul 21
6:00 AM
Sun, Jul 21
7:00 AM
Sun, Jul 21
8:00 AM
Sun, Jul 21
9:00 AM
Sun, Jul 21
10:00 AM
Sun, Jul 21
11:00 AM
Condition
Rain

Clouds

Clouds

Clouds

Clouds

Rain

Rain

Rain

Rain

Rain

Rain

Clouds

Clouds

Clouds

Clear

Clear

Clear

Clear

Clear

Clear

Clouds

Clear

Rain

Rain

Rain

Clear

Clouds

Clouds

Clouds

Clouds

Rain

Rain

Rain

Clouds

Clouds

Rain

Clouds

Clouds

Rain

Clouds

Clouds

Clouds

Clouds

Clouds

Clear

Clear

Rain

Rain
Temperature 71°F72°F72°F76°F80°F82°F78°F77°F72°F70°F70°F69°F69°F69°F69°F69°F69°F69°F68°F70°F73°F77°F81°F82°F87°F91°F91°F89°F87°F87°F84°F79°F77°F76°F74°F73°F73°F73°F72°F72°F71°F71°F71°F73°F76°F81°F85°F88°F
Feels Like 73°F73°F73°F77°F80°F85°F80°F79°F74°F71°F71°F71°F71°F70°F70°F70°F70°F70°F70°F71°F75°F78°F84°F86°F92°F96°F96°F94°F92°F92°F89°F79°F78°F77°F76°F75°F74°F74°F73°F73°F72°F72°F72°F74°F77°F85°F90°F92°F
Cloudiness 100%100%100%95%86%76%73%65%8%17%23%30%30%26%3%2%3%2%2%2%15%9%8%7%7%10%60%71%82%72%77%80%99%100%100%100%92%88%89%66%58%60%58%49%0%4%7%11%
Visibility 6 mi6 mi6 mi6 mi6 mi6 mi6 mi6 mi6 mi6 mi6 mi6 mi6 mi6 mi6 mi6 mi6 mi6 mi6 mi6 mi6 mi6 mi6 mi6 mi6 mi6 mi6 mi6 mi6 mi6 mi6 mi6 mi6 mi6 mi6 mi6 mi6 mi6 mi6 mi6 mi6 mi6 mi6 mi6 mi6 mi6 mi6 mi6 mi
Precipitation 100%80%1%3%9%21%51%69%98%100%98%76%74%71%0%0%0%0%0%0%0%0%24%99%100%80%0%0%0%11%39%74%89%65%52%55%42%30%88%7%0%6%5%2%0%0%27%26%
Humidity 93%92%90%81%70%65%79%84%92%95%97%97%97%97%97%97%97%97%98%97%90%82%73%71%56%49%47%50%58%60%64%81%85%87%90%92%92%92%94%95%96%96%95%93%87%76%63%54%
Dew Point 69°F69°F69°F69°F69°F69°F71°F72°F70°F69°F68°F68°F68°F68°F68°F68°F68°F68°F68°F69°F70°F71°F71°F71°F70°F69°F68°F68°F70°F71°F70°F73°F72°F72°F71°F71°F70°F70°F70°F70°F70°F69°F69°F70°F72°F72°F71°F69°F
Pressure 30.06"30.06"30.06"30.03"30"30"30"30"30"30"30.03"30"30"30"30"30"30"30"30.03"30.03"30.06"30.06"30.06"30.06"30.03"30"30"29.97"29.97"29.97"29.97"29.97"30"30"30"30"30"30"30"30"30"30"30"30.03"30.03"30.03"30.03"30"
Wind Speed 5.4 mph5.1 mph5.1 mph4.4 mph4.7 mph5.3 mph5.2 mph4.1 mph4.1 mph4.2 mph3.8 mph3.5 mph3.2 mph3 mph2.8 mph2.4 mph3.2 mph2.2 mph3.5 mph3.3 mph3.3 mph3.7 mph3.5 mph3.6 mph2.7 mph2.5 mph2.7 mph5 mph4.1 mph1.3 mph1.9 mph1.3 mph2.7 mph3.3 mph2.7 mph2.1 mph2.2 mph2.7 mph2.9 mph2.7 mph2.6 mph2.8 mph1.3 mph0.9 mph1.2 mph1.9 mph3.4 mph4.2 mph
Wind
Direction
46°
NE
36°
NE
47°
NE
44°
NE
48°
NE
48°
NE
50°
NE
53°
NE
50°
NE
51°
NE
67°
ENE
90°
E
117°
ESE
136°
SE
127°
SE
130°
SE
130°
SE
113°
ESE
121°
ESE
120°
ESE
113°
ESE
116°
ESE
102°
ESE
124°
SE
130°
SE
143°
SE
177°
S
212°
SSW
217°
SW
224°
SW
39°
NE
18°
NNE
345°
NNW
21°
NNE
53°
NE
66°
ENE
52°
NE
55°
NE
79°
E
122°
ESE
175°
S
188°
S
154°
SSE
155°
SSE
160°
SSE
187°
S
254°
WSW
283°
WNW

Daily Forecast

Date High Low Precip. Humidity
Today
Jul 19

Rain
82 °F
69 °F
100%
92%
Saturday
Jul 20

Rain
91 °F
68 °F
100%
49%
Sunday
Jul 21

Rain
93 °F
71 °F
88%
43%
Monday
Jul 22

Rain
91 °F
70 °F
100%
43%
Tuesday
Jul 23

Rain
81 °F
71 °F
100%
74%
Wednesday
Jul 24

Rain
77 °F
70 °F
100%
85%
Thursday
Jul 25

Rain
81 °F
70 °F
100%
94%
Friday
Jul 26

Clouds
87 °F
70 °F
80%
72%
Saturday
Jul 27

Rain
92 °F
71 °F
100%
74%
Sunday
Jul 28

Rain
92 °F
75 °F
100%
58%
Monday
Jul 29

Rain
96 °F
74 °F
100%
43%
Tuesday
Jul 30

Rain
86 °F
74 °F
94%
69%
Wednesday
Jul 31

Rain
97 °F
74 °F
100%
41%
Thursday
Aug 1

Rain
97 °F
74 °F
85%
43%
Friday
Aug 2

Clear
96 °F
75 °F
0%
46%
Saturday
Aug 3

Clouds
98 °F
75 °F
0%
41%

Temperature 8-14 Day Outlook



Precipitation 8-14 Day Outlook






About Us
Contact Us
Site Map
Search Site
Advertise With Us
   
Grenada.USLakes.info
THE GRENADA LAKE WEBSITE

Copyright 2024, Lakes Online
Privacy    |    Legal